Faribault, MN

12:53 PM CDT on April 29, 2017 (GMT -0500)
Faribault Municipal

Weather History for KFBL - June, 2014

Change the Weather History Date:

Wednesday, June 25, 2014

  Actual Average Record
Temperature  
Mean Temperature 71 °F -  
Max Temperature 78 °F 80 °F 100 °F (1988)
Min Temperature 64 °F 58 °F 44 °F (1958)
Cooling Degree Days 6    
Growing Degree Days 21 (Base 50)    
Moisture  
Dew Point 57 °F    
Average Humidity 67    
Maximum Humidity 83    
Minimum Humidity 42    
Precipitation  
Precipitation 0.00 in - - ()
Sea Level Pressure  
Sea Level Pressure 30.03 in    
Wind  
Wind Speed 2 mph (North)    
Max Wind Speed 7 mph    
Max Gust Speed -    
Visibility 8 miles    
Events      
Averages and records for this station are not official NWS values.
T = Trace of Precipitation, MM = Missing Value Source: NWS Daily Summary

Daily Weather History Graph

Daily Weather History Graph

Search for Another Location

Airport or City:

Trip Planner

Search our weather history database for the weather conditions in past years. The results will help you decide how hot, cold, wet, or windy it might be!

Date:

Astronomy

Jun. 25, 2014 Rise Set
Actual Time 5:30 AM CDT 9:01 PM CDT
Civil Twilight 4:53 AM CDT 9:38 PM CDT
Nautical Twilight 4:05 AM CDT 10:26 PM CDT
Astronomical Twilight 3:02 AM CDT 11:28 PM CDT
Moon 4:26 AM CDT (6/25) 7:30 PM CDT (6/25)
Length of Visible Light 16h 44m
Length of Day
15h 31m
Waning Crescent, 3% of the Moon is Illuminated
Jun 25
Waning Crescent
Jun 27
New
Jul 5
First Quarter
Jul 12
Full
Jul 18
Last Quarter

Hourly Weather History & Observations

Time (CDT) Temp. Dew Point Humidity Pressure Visibility Wind Dir Wind Speed Gust Speed Precip Events Conditions
12:13 AM 68.0 °F 60.8 °F 78% 29.97 in 10.0 mi Calm Calm - N/A   Clear
12:34 AM 66.2 °F 59.0 °F 78% 29.97 in 10.0 mi Calm Calm - N/A   Clear
12:54 AM 66.2 °F 59.0 °F 78% 29.97 in 10.0 mi Calm Calm - N/A   Clear
1:13 AM 66.2 °F 59.0 °F 78% 29.97 in 10.0 mi Calm Calm - N/A   Clear
1:34 AM 66.2 °F 60.8 °F 83% 29.98 in 10.0 mi NNE 4.6 mph - N/A   Clear
1:54 AM 66.2 °F 59.0 °F 78% 29.98 in 10.0 mi Calm Calm - N/A   Clear
2:13 AM 66.2 °F 59.0 °F 78% 29.98 in 10.0 mi Calm Calm - N/A   Clear
2:34 AM 66.2 °F 59.0 °F 78% 29.98 in 10.0 mi Calm Calm - N/A   Clear
2:54 AM 66.2 °F 59.0 °F 78% 29.98 in 10.0 mi Calm Calm - N/A   Clear
3:13 AM 64.4 °F 59.0 °F 83% 29.98 in 10.0 mi Calm Calm - N/A   Clear
3:34 AM 64.4 °F 59.0 °F 83% 29.99 in 10.0 mi Calm Calm - N/A   Clear
3:54 AM 66.2 °F 60.8 °F 83% 29.99 in 10.0 mi Calm Calm - N/A   Scattered Clouds
4:13 AM 66.2 °F 60.8 °F 83% 29.99 in 7.0 mi North 5.8 mph - N/A   Overcast
4:34 AM 66.2 °F 60.8 °F 83% 30.00 in 7.0 mi NNW 4.6 mph - N/A   Overcast
4:53 AM 66.2 °F 60.8 °F 83% 30.00 in 7.0 mi North 5.8 mph - N/A   Overcast
5:14 AM 66.2 °F 60.8 °F 83% 30.01 in 7.0 mi North 4.6 mph - N/A   Overcast
5:34 AM 66.2 °F 60.8 °F 83% 30.01 in 7.0 mi North 5.8 mph - N/A   Overcast
5:53 AM 66.2 °F 60.8 °F 83% 30.02 in 7.0 mi NNW 5.8 mph - N/A   Overcast
6:14 AM 66.2 °F 59.0 °F 78% 30.01 in 5.0 mi North 5.8 mph - N/A   Haze
6:34 AM 66.2 °F 59.0 °F 78% 30.01 in 5.0 mi North 3.5 mph - N/A   Haze
6:54 AM 66.2 °F 59.0 °F 78% 30.02 in 5.0 mi Calm Calm - N/A   Haze
7:13 AM 66.2 °F 59.0 °F 78% 30.03 in 5.0 mi North 3.5 mph - N/A   Haze
7:34 AM 66.2 °F 59.0 °F 78% 30.04 in 5.0 mi North 4.6 mph - N/A   Haze
7:54 AM 64.4 °F 57.2 °F 77% 30.04 in 4.0 mi NNE 5.8 mph - N/A   Haze
8:14 AM 64.4 °F 57.2 °F 77% 30.04 in 2.5 mi NNE 5.8 mph - N/A   Haze
8:34 AM 64.4 °F 57.2 °F 77% 30.05 in 3.0 mi Calm Calm - N/A   Haze
8:54 AM 64.4 °F 57.2 °F 77% 30.05 in 2.5 mi Calm Calm - N/A   Haze
9:13 AM 64.4 °F 57.2 °F 77% 30.06 in 3.0 mi Calm Calm - N/A   Haze
9:34 AM 66.2 °F 57.2 °F 73% 30.06 in 4.0 mi North 3.5 mph - N/A   Haze
9:54 AM 66.2 °F 57.2 °F 73% 30.06 in 5.0 mi North 6.9 mph - N/A   Haze
10:13 AM 66.2 °F 57.2 °F 73% 30.06 in 7.0 mi Calm Calm - N/A   Overcast
10:34 AM 66.2 °F 57.2 °F 73% 30.07 in 7.0 mi NNW 4.6 mph - N/A   Overcast
10:54 AM 66.2 °F 57.2 °F 73% 30.07 in 7.0 mi NE 3.5 mph - N/A   Overcast
11:13 AM 68.0 °F 57.2 °F 68% 30.06 in 10.0 mi NNW 3.5 mph - N/A   Overcast
11:54 AM 69.8 °F 55.4 °F 60% 30.06 in 10.0 mi WNW 3.5 mph - N/A   Overcast
12:14 PM 69.8 °F 55.4 °F 60% 30.06 in 10.0 mi Calm Calm - N/A   Overcast
12:33 PM 71.6 °F 57.2 °F 60% 30.07 in 10.0 mi WSW 5.8 mph - N/A   Overcast
12:54 PM 71.6 °F 57.2 °F 60% 30.06 in 10.0 mi Calm Calm - N/A   Overcast
1:14 PM 73.4 °F 57.2 °F 57% 30.06 in 10.0 mi West 5.8 mph - N/A   Overcast
1:33 PM 71.6 °F 55.4 °F 57% 30.06 in 10.0 mi Calm Calm - N/A   Mostly Cloudy
1:54 PM 73.4 °F 57.2 °F 57% 30.05 in 10.0 mi WNW 4.6 mph - N/A   Mostly Cloudy
2:14 PM 73.4 °F 55.4 °F 53% 30.05 in 10.0 mi West 4.6 mph - N/A   Mostly Cloudy
2:34 PM 73.4 °F 55.4 °F 53% 30.05 in 10.0 mi Calm Calm - N/A   Scattered Clouds
2:54 PM 73.4 °F 55.4 °F 53% 30.05 in 10.0 mi NW 4.6 mph - N/A   Scattered Clouds
3:13 PM 75.2 °F 55.4 °F 50% 30.04 in 10.0 mi NW 4.6 mph - N/A   Clear
3:34 PM 75.2 °F 55.4 °F 50% 30.04 in 10.0 mi North 4.6 mph - N/A   Clear
3:54 PM 75.2 °F 53.6 °F 47% 30.04 in 10.0 mi Calm Calm - N/A   Clear
4:13 PM 75.2 °F 55.4 °F 50% 30.04 in 10.0 mi NW 4.6 mph - N/A   Clear
4:34 PM 77.0 °F 55.4 °F 47% 30.04 in 10.0 mi Calm Calm - N/A   Scattered Clouds
4:54 PM 75.2 °F 55.4 °F 50% 30.04 in 10.0 mi NNW 5.8 mph - N/A   Scattered Clouds
5:14 PM 78.8 °F 55.4 °F 44% 30.03 in 10.0 mi Calm Calm - N/A   Scattered Clouds
5:34 PM 78.8 °F 55.4 °F 44% 30.03 in 10.0 mi NW 3.5 mph - N/A   Scattered Clouds
5:53 PM 78.8 °F 53.6 °F 42% 30.02 in 10.0 mi NNW 5.8 mph - N/A   Clear
6:14 PM 77.0 °F 53.6 °F 44% 30.02 in 10.0 mi NW 3.5 mph - N/A   Clear
6:33 PM 77.0 °F 55.4 °F 47% 30.02 in 10.0 mi NNW 4.6 mph - N/A   Scattered Clouds
6:54 PM 75.2 °F 55.4 °F 50% 30.02 in 10.0 mi NW 4.6 mph - N/A   Clear
7:14 PM 75.2 °F 55.4 °F 50% 30.02 in 10.0 mi NNW 5.8 mph - N/A   Clear
7:34 PM 75.2 °F 55.4 °F 50% 30.02 in 10.0 mi NNW 5.8 mph - N/A   Clear
8:14 PM 73.4 °F 55.4 °F 53% 30.02 in 10.0 mi NNE 6.9 mph - N/A   Clear
8:34 PM 71.6 °F 55.4 °F 57% 30.02 in 10.0 mi NE 4.6 mph - N/A   Clear
9:13 PM 69.8 °F 57.2 °F 64% 30.03 in 10.0 mi NNE 5.8 mph - N/A   Clear
9:54 PM 68.0 °F 57.2 °F 68% 30.05 in 10.0 mi NE 4.6 mph - N/A   Clear
10:13 PM 66.2 °F 57.2 °F 73% 30.05 in 10.0 mi NNE 4.6 mph - N/A   Clear
10:34 PM 66.2 °F 57.2 °F 73% 30.05 in 10.0 mi Calm Calm - N/A   Clear
10:54 PM 66.2 °F 57.2 °F 73% 30.05 in 10.0 mi Calm Calm - N/A   Clear
11:13 PM 66.2 °F 57.2 °F 73% 30.05 in 10.0 mi NE 3.5 mph - N/A   Clear
11:34 PM 64.4 °F 57.2 °F 77% 30.04 in 10.0 mi NNE 3.5 mph - N/A   Clear